STARLINK-35915

Last updated on Fri Dec 19 2025 00:02:05 GMT+0000 (Coordinated Universal Time)

1 66521U 25265F 25352.66667824 .00026483 00000+0 63943-3 0 9992 2 66521 43.0008 19.6366 0001246 252.9828 134.5946 15.40681515 5943
UTC large
Height (km)
Speed (km/s)
/
Latitude / Longitude
Inclination (degrees)
Orbital Period (minutes)
Azimuth
Elevation
Range (km)
Doppler Factor

Next 0 passes for location: London (51.5072 / 0.1276)

Sorry there are no passes over London.